This demonstration page uses our WeatherBlox Daily Observations layout. Learn more.

Left ArrowRight Arrow

Hourly Observations for July 2, 2022

Temp ( °F °C ) Dew Point ( °F °C ) Humidity (%) Winds ( mph kmh ) Pressure ( in mb ) Visibility ( mi km ) Precip ( " mm )
12:53 am 00:53 Clear 57 13.9 43 6.1 60 60 ESE 7 11 29.90 1012 10 16 0.00 0.00
1:53 am 01:53 Clear 60 15.6 41 5 50 50 ENE 12 19 29.88 1012 10 16 0.00 0.00
2:53 am 02:53 Clear 59 15 41 5 51 51 ENE 10 17 29.88 1012 10 16 0.00 0.00
3:53 am 03:53 Clear 57 13.9 42 5.6 58 58 E 10 17 29.88 1012 10 16 0.00 0.00
4:53 am 04:53 Clear 54 12.2 42 5.6 64 64 NE 3 6 29.88 1012 10 16 0.00 0.00
5:53 am 05:53 Cloudy with Light Rain 59 15 47 8.3 64 64 NW 8 13 29.93 1014 10 16 0.00 0.00
6:02 am 06:02 Mostly Cloudy with Nearby Thunderstorms 59 15 48 8.9 67 67 NNW 5 7 29.93 1014 10 16 0.00 0.00
6:17 am 06:17 Mostly Cloudy 61 16.1 48 8.9 63 63 NNE 15 24 29.90 1012 10 16 0.00 0.00
6:53 am 06:53 Partly Cloudy 62 16.7 47 8.3 58 58 VRB 6 9 29.93 1014 10 16 0.00 0.00
7:53 am 07:53 Mostly Sunny 67 19.4 49 9.4 53 53 NE 6 9 29.94 1014 10 16 0.00 0.00
8:53 am 08:53 Sunny 69 20.6 50 10 51 51 NE 14 22 29.94 1014 10 16 0.00 0.00
9:53 am 09:53 Sunny 73 22.8 50 10 44 44 ENE 16 26 29.94 1014 10 16 0.00 0.00
10:53 am 10:53 Sunny 76 24.4 50 10 40 40 ENE 15 24 29.93 1014 10 16 0.00 0.00
11:53 am 11:53 Mostly Sunny 77 25 50 10 39 39 E 9 15 29.93 1014 10 16 0.00 0.00
12:53 pm 12:53 Partly Cloudy 79 26.1 48 8.9 34 34 E 9 15 29.94 1014 10 16 0.00 0.00
1:53 pm 13:53 Sunny 82 27.8 48 8.9 31 31 NE 8 13 29.90 1013 10 16 0.00 0.00
2:53 pm 14:53 Sunny 83 28.3 49 9.4 31 31 ESE 8 13 29.88 1012 10 16 0.00 0.00
3:53 pm 15:53 Sunny 85 29.4 49 9.4 29 29 ENE 7 11 29.87 1011 10 16 0.00 0.00
4:53 pm 16:53 Sunny 85 29.4 48 8.9 28 28 NE 5 7 29.85 1011 10 16 0.00 0.00
5:53 pm 17:53 Sunny 86 30 48 8.9 27 27 N 9 15 29.83 1010 10 16 0.00 0.00
6:53 pm 18:53 Sunny 85 29.4 46 7.8 26 26 ENE 6 9 29.80 1009 10 16 0.00 0.00
7:53 pm 19:53 Sunny 82 27.8 46 7.8 28 28 NNW 5 7 29.81 1009 10 16 0.00 0.00
8:53 pm 20:53 Sunny 78 25.6 48 8.9 35 35 NNE 14 22 29.82 1010 10 16 0.00 0.00
9:53 pm 21:53 Clear 75 23.9 47 8.3 37 37 NE 16 26 29.85 1011 10 16 0.00 0.00
10:53 pm 22:53 Clear 72 22.2 50 10 46 46 NE 17 28 29.86 1011 10 16 0.00 0.00
11:49 pm 23:49 Mostly Cloudy with Thunderstorms 72 22 50 10 47 47 NE 8 13 29.82 1010 3 4 0.00 0.00
11:53 pm 23:53 Cloudy with Thunderstorms 70 21.1 51 10.6 51 51 VRB 3 6 29.91 1013 2 3 0.00 0.00

Powered by AerisWeather